Location: Beuvrequen
(50.8014°N, 1.6652°E)
Time: 08:27:03
(UTC+00:00)

Cosmos 1844 - Pass Details

Date: 29 May 2022
Orbit: 821 x 869 km, 70.9° (Epoch: 02 July)

Event Time Altitude Azimuth Distance (km) Brightness Sun altitude
Rises 21:57:54 0° 329° (NNW) 3,465 8.9 -13.3°
Reaches altitude 10° 22:00:22 10° 328° (NNW) 2,525 7.6 -13.5°
Maximum altitude 22:06:12 80° 243° (WSW) 888 3.8 -13.9°
Enters shadow 22:10:14 21° 159° (SSE) 1,867 4.8 -14.2°
